Regional Weather Roundup
Issued by NWS

Home | Current Version | Previous Version | Graphics & Text | Print | Product List | Glossary On
Versions: 1 2 3 4 5 6 7 8 9 10 11 12 13 14 15 16 17 18 19 20 21 22 23 24 25 26 27 28 29 30 31 32 33 34 35 36 37 38 39 40 41 42 43 44 45 46 47 48 49 50
000
ASUS45 KTFX 252010
RWRMT
MONTANA REGIONAL WEATHER ROUNDUP
NATIONAL WEATHER SERVICE GREAT FALLS MT
200 PM MDT MON SEP 25 2017

NOTE: "FAIR" INDICATES FEW OR NO CLOUDS BELOW 12000 FEET WITH NO
SIGNIFICANT WEATHER AND/OR OBSTRUCTIONS TO VISIBILITY.

MTZ001>007-043-252100-
WEST OF THE DIVIDE

CITY           SKY/WX    TMP DP  RH WIND       PRES   REMARKS
KALISPELL      CLOUDY    58  43  57 SE10      30.06S
MISSOULA       CLOUDY    52  42  69 E5        30.11F
BUTTE          CLOUDY    49  34  56 NW5       30.10F
MULLAN PASS    CLOUDY    47  36  65 VRB3      30.14R
ANACONDA         N/A     52  36  54 W15G22    30.09F
DEER LODGE       N/A     50  36  57 N3        30.12F
EUREKA           N/A     63  39  42 MISG      30.03F
HAMILTON         N/A     55  39  54 CALM      30.11F
LIBBY            N/A     61  43  51 CALM      30.04F
PLAINS           N/A     62  42  47 CALM      30.08S
$$

MTZ008-052>055-252100-
SOUTHWEST MONTANA

CITY           SKY/WX    TMP DP  RH WIND       PRES   REMARKS
BOZEMAN        PTSUNNY   56  30  37 VRB7      30.07F
DILLON         CLOUDY    53  24  32 CALM      30.09F
W YELLOWSTONE  CLOUDY    45  23  42 VRB3      30.11F
ENNIS          CLOUDY    54  25  32 SW7G13    30.13F
THREE FORKS      N/A     57  33  40 SW7       30.05F
TWIN BRIDGES     N/A     53  26  35 CALM      30.07F
$$

MTZ009-010-012-014-046-048-049-054-252100-
EAST SLOPES AND CENTRAL MONTANA

CITY           SKY/WX    TMP DP  RH WIND       PRES   REMARKS
CUT BANK       PTSUNNY   61  35  37 SE3       30.00S
GREAT FALLS    SUNNY     58  30  34 VRB3      30.01F
MALMSTROM AFB  MOSUNNY   59  33  37 W6        30.01F
HELENA         CLOUDY    56  36  47 NE3       30.04F
BOWMANS CRNR     N/A     58  32  37 NW9       30.00F
CHOTEAU          N/A     61  28  29 VRB6G12   30.03S
FAIRFIELD        N/A     58  30  34 W3        30.00F
POWER            N/A     58  32  37 N5        30.00F
RAYNESFORD     PTSUNNY   59  31  35 W3        30.02F
ULM              N/A     59  32  35 CALM      30.01F
$$

MTZ011-013-016-021-045-047-050-051-252100-
NORTH CENTRAL MONTANA

CITY           SKY/WX    TMP DP  RH WIND       PRES   REMARKS
HAVRE          SUNNY     64  32  30 VRB7      30.00F
LEWISTOWN      SUNNY     56  28  34 W6        30.03F
N BAR RANCH      N/A     55  32  41 SE8       30.05F
CHINOOK          N/A     63  30  29 N3        30.00F
DENTON           N/A     58  29  32 E5        29.99F
GEYSER           N/A     59  31  34 W6        30.01F
JUDITH GAP       N/A     53  29  39 E6        30.02F
WINIFRED         N/A     57  31  37 N14       30.02F
$$

MTZ017>020-022>027-061-062-252100-
NORTHEAST MONTANA

CITY           SKY/WX    TMP DP  RH WIND       PRES   REMARKS
GLASGOW        PTSUNNY   58  33  39 S13       30.06F
JORDAN           N/A     57  37  47 S6        30.06F
WOLF POINT     MOSUNNY   53  38  56 SE6       30.11F
MALTA          MOSUNNY   63  32  31 S8G16     30.04F
PLENTYWOOD       N/A     52  39  62 S3        30.13F
POPLAR           N/A     52  39  62 SE7       30.12F
SCOBEY           N/A     54  33  44 SE9       30.08S
$$

MTZ028>42-056>058-252100-
SOUTHCENTRAL AND SOUTHEAST MONTANA

CITY           SKY/WX    TMP DP  RH WIND       PRES   REMARKS
BAKER          CLOUDY    46  37  71 CALM      30.12F
BILLINGS       CLOUDY    56  35  45 SW6       30.05F
LIVINGSTON     CLOUDY    58  28  32 SW18      30.04F
MILES CITY     LGT RAIN  44  41  89 SE10      30.12F
BIG TIMBER     SUNNY     57  27  30 SW15      30.06F
EKALAKA          N/A     45  37  73 CALM      30.07F
HARLOWTON        N/A     58  30  35 MISG      30.02F
LAUREL           N/A     57  36  44 CALM      30.05F
$$

REGIONAL REPORTS...DAKOTAS

CITY           SKY/WX    TMP DP  RH WIND       PRES   REMARKS
WILLISTON      CLOUDY    53  43  68 NE5       30.13F
MINOT          CLOUDY    54  43  66 E6        30.13F
DICKINSON      LGT RAIN  46  44  93 SW3       30.11F FOG
BEACH          CLOUDY    45  43  93 S7        30.16F
CROSBY         CLOUDY    52  43  71 CALM      30.14F
TIOGA          CLOUDY    50  43  76 E8        30.14F
WATFORD CITY   CLOUDY    48  45  87 CALM      30.13S
BISMARCK       CLOUDY    53  44  71 N3        30.14F
GRAND FORKS    CLOUDY    53  47  79 N9        30.11F
FARGO          CLOUDY    53  48  83 N15       30.09F
BUFFALO SD       N/A     48  40  73 CALM      30.05F
RAPID CITY     CLOUDY    52  43  71 S6        30.10F
$$

REGIONAL REPORTS...WYOMING/IDAHO/WASHINGTON

CITY           SKY/WX    TMP DP  RH WIND       PRES   REMARKS
GILLETTE       CLOUDY    47  39  74 W5        30.08F
SHERIDAN       CLOUDY    53  38  56 VRB5      30.08F
BUFFALO WY     CLOUDY    46  37  71 E6        30.09F
CODY           CLOUDY    49  31  49 NE5       30.08F
IDAHO FALLS    PTSUNNY   52  27  38 W7        30.13S
SALMON         CLOUDY    54  34  46 N7        30.12F
BOISE          SUNNY     62  33  33 VRB5      30.11F
SPOKANE        PTSUNNY   64  41  42 SW8       30.07S
$$

REGIONAL REPORTS...ALBERTA

CITY           SKY/WX    TMP DP  RH WIND       PRES   REMARKS
EDMONTON       MOSUNNY   64  46  52 SW9       29.90S
CALGARY        PTSUNNY   64  37  36 S3        29.95F
LETHBRIDGE     PTSUNNY   64  36  34 NW3       29.95F
MEDICINE HAT   PTSUNNY   68  36  30 SW13      29.95F
$$

REGIONAL REPORTS...SASKATCHEWAN

CITY           SKY/WX    TMP DP  RH WIND       PRES   REMARKS
SWIFT CURRENT  MOSUNNY   61  32  33 S10G24    30.00F
REGINA         PTSUNNY   59  28  31 S8        30.09F
SASKATOON      PTSUNNY   64  37  36 SW12G22   30.02F
$$



USA.gov is the U.S. government's official web portal to all federal, state and local government web resources and services.